Regional Weather Roundup
Issued by NWS

Home | Current Version | Previous Version | Text Only | Print | Product List | Glossary Off
Versions: 1 2 3 4 5 6 7 8 9 10 11 12 13 14 15 16 17 18 19 20 21 22 23 24 25 26 27 28 29 30 31 32 33 34 35 36 37 38 39 40 41 42 43 44 45 46 47 48 49 50

000
ASUS43 KMKX 281207
RWRWI

WISCONSIN REGIONAL WEATHER ROUNDUP
NATIONAL WEATHER SERVICE MILWAUKEE/SULLIVAN WI
700 AM CDT THU MAY 28 2015

NOTE: "FAIR" INDICATES FEW OR NO CLOUDS BELOW 12,000 FEET WITH NO
SIGNIFICANT WEATHER AND/OR OBSTRUCTIONS TO VISIBILITY.

WIZ001-002-006>008-014>016-023>028-281300-
NORTHWEST WISCONSIN

CITY           SKY/WX    TMP DP  RH WIND       PRES   REMARKS
SUPERIOR ARPT  CLOUDY    42  40  90 NE14      30.14S
ASHLAND        PTSUNNY   47  45  93 N7        30.13R
6HR MIN TEMP:  44; 6HR MAX TEMP:  51;

HAYWARD        SUNNY     54  52  93 N5        30.09F
6HR MIN TEMP:  48; 6HR MAX TEMP:  54;

SIREN          SUNNY     55  54  97 CALM      30.07S FOG
CUMBERLAND     SUNNY     55  54  94 CALM      30.08S
RICE LAKE      SUNNY     56  53  88 CALM      30.10S
CHETEK         SUNNY     56  55  93 E3        30.09S
LADYSMITH      SUNNY     54  54  97 E3        30.12S
EAU CLAIRE     NOT AVBL
MENOMONIE      SUNNY     58  58  98 E3        30.09S
NEW RICHMOND   SUNNY     62  55  78 S5        30.07S
OSCEOLA        SUNNY     63  58  85 SE5       30.08S
$$

WIZ003>005-009-010-017-018-281300-
NORTH CENTRAL WISCONSIN

CITY           SKY/WX    TMP DP  RH WIND       PRES   REMARKS
MANITOWISH WTR MOSUNNY   50  50 100 CALM      30.13R
ARBOR VITAE    SUNNY     52  51  95 CALM      30.14R
WOODRUFF       SUNNY     52  51  95 CALM      30.14R
RHINELANDER    SUNNY     53  50  89 CALM      30.15S
6HR MIN TEMP:  45; 6HR MAX TEMP:  53;

EAGLE RIVER    SUNNY     50  50 100 CALM      30.15R
LAND O LAKES   SUNNY     49  49 100 CALM      30.16R FOG
PHILLIPS       SUNNY     56  55  96 S5        30.12S
TOMAHAWK       SUNNY     50  49  97 CALM      30.15R FOG
MEDFORD        SUNNY     55  54  98 CALM      30.14R FOG
MERRILL        SUNNY     50  50 100 CALM      30.15S
$$

WIZ029-030-035-036-043>047-281300-
CENTRAL WISCONSIN

CITY           SKY/WX    TMP DP  RH WIND       PRES   REMARKS
WAUSAU         SUNNY     57  56  96 E5        30.13S
6HR MIN TEMP:  54; 6HR MAX TEMP:  59; 6HR PCP: TRACE;

MOSINEE        NOT AVBL
MARSHFIELD     SUNNY     59  56  89 CALM      30.13S
6HR MIN TEMP:  54; 6HR MAX TEMP:  59;

STEVENS POINT  SUNNY     53  53  99 CALM      30.16R
WAUPACA        SUNNY     58  57  96 CALM      30.15R FOG
WAUTOMA        NOT AVBL
WISC RAPIDS    SUNNY     59  56  89 CALM      30.14F
6HR MIN TEMP:  52; 6HR MAX TEMP:  59;

CAMP DOUGLAS   NOT AVBL
$$

WIZ011>013-019>022-031-037>040-048>050-281300-
NORTHEAST WISCONSIN

CITY           SKY/WX    TMP DP  RH WIND       PRES   REMARKS
ANTIGO         SUNNY     52  52 100 CALM      30.16R
SHAWANO        SUNNY     57  56  96 CALM      30.16R FOG
OCONTO         SUNNY     54  54 100 CALM      30.16R
STURGEON BAY   SUNNY     55  52  88 CALM      30.18S
6HR MIN TEMP:  52; 6HR MAX TEMP:  57;

GREEN BAY      SUNNY     61  57  87 CALM      30.15S
6HR MIN TEMP:  55; 6HR MAX TEMP:  61;

MANITOWOC      NOT AVBL
APPLETON       SUNNY     61  57  88 CALM      30.16R
CLINTONVILLE   SUNNY     55  54  94 CALM      30.15R FOG
OSHKOSH        SUNNY     64  58  80 VRB5      30.15R
6HR MIN TEMP:  55; 6HR MAX TEMP:  64;

$$

WIZ032>034-041-042-053>061-281300-
SOUTHWEST WISCONSIN

CITY           SKY/WX    TMP DP  RH WIND       PRES   REMARKS
LA CROSSE      SUNNY     63  59  87 SE5       30.11S
6HR MIN TEMP:  62; 6HR MAX TEMP:  65;

SPARTA         SUNNY     54  52  94 CALM      30.14S
VIROQUA        SUNNY     60  57  89 SE5       30.15S
BOSCOBEL       FOG       57  57 100 CALM      30.15R VSB<1/4
6HR MIN TEMP:  54; 6HR MAX TEMP:  58;

PRAIRIE DU CHI SUNNY     58  56  92 CALM      30.14R
PLATTEVILLE    SUNNY     62  58  86 SE7       30.17R
$$

WIZ056-057-062-063-064-067-068-281300-
SOUTH CENTRAL WISCONSIN

CITY           SKY/WX    TMP DP  RH WIND       PRES   REMARKS
REEDSBURG      SUNNY     61  58  89 CALM      30.15R
BARABOO/DELLS  SUNNY     63  56  77 W3        30.15S
LONE ROCK      NOT AVBL
MINERAL POINT  SUNNY     61  55  82 SE3       30.17S
MADISON        MOSUNNY   63  58  83 S5        30.16R
6HR MIN TEMP:  56; 6HR MAX TEMP:  66;

MIDDLETON      SUNNY     66  56  69 SW7       30.17R
WATERTOWN      SUNNY    N/A N/A N/A CALM      30.16S
MONROE         SUNNY     61  55  82 SW8       30.17S
JANESVILLE     NOT AVBL
$$

WIZ051-052-058>065-066-070>072-281300-
SOUTHEAST WISCONSIN

CITY           SKY/WX    TMP DP  RH WIND       PRES   REMARKS
MILWAUKEE      MOSUNNY   64  57  78 SW3       30.17S
6HR MIN TEMP:  59; 6HR MAX TEMP:  64;

WAUKESHA       SUNNY     61  57  88 S3        30.19R
MILWAUKEE/TIMM SUNNY     63  55  77 CALM      30.18S
RACINE         SUNNY     64  56  75 W5        30.19S
6HR MIN TEMP:  57; 6HR MAX TEMP:  64;

BURLINGTON     SUNNY     54  53  99 CALM      30.18R
KENOSHA        SUNNY     61  57  87 SW3       30.19R
6HR MIN TEMP:  53; 6HR MAX TEMP:  61;

FOND DU LAC    SUNNY     65  58  78 SW6       30.16R
6HR MIN TEMP:  57; 6HR MAX TEMP:  65;

SHEBOYGAN      SUNNY     66  60  81 CALM      30.15S
6HR MIN TEMP:  56; 6HR MAX TEMP:  66;

WEST BEND      SUNNY     63  57  82 S3        30.17S
JUNEAU         SUNNY     59  57  92 S3        30.18S
$$

LSZ147-162-281300-
LAKE SUPERIOR

STATION/POSITION TIME  TEMP    WIND        PRES    WAVE
                       AIR SEA DIR/SP/G            HT/PER
                 (UTC) (F)     (DEG/KT/KT) (MB)    (FT/S)
W MID LAKE BUOY  1050   39 37   50/ 14/ 16   N/A     3/ 4
DEVILS ISLAND    1100   41      70/ 15/ 18   N/A
PORT WING        1100   42      40/ 10/ 13   N/A
SAXON HARBOR     1140   47        CALM       N/A
$$

LMZ867-665-643>646-281300-
LAKE MICHIGAN

STATION/POSITION TIME  TEMP    WIND        PRES    WAVE
                       AIR SEA DIR/SP/G            HT/PER
                 (UTC) (F)     (DEG/KT/KT) (MB)    (FT/S)
CHAMBERS ISLAND  1100   58     210/  2/  4   N/A
N MID LAKE BUOY  1050   41 36  220/  6/  8   N/A     1/ 4
NORTHPORT PIER   1100   50      CALM  /  4   N/A
SISTER BAY       1103   51        CALM       N/A
ALGOMA LAKESHORE 1108             CALM       N/A
KEWAUNEE LAKESHO 1100   49     190/  4/  5   N/A
SHEBOYGAN LAKESH 1100   62     230/  5/  5   N/A
PORT WASHINGTON  1000   66     260/  7/ 12   N/A
ATWATER BUOY     1100   57 47  300/  2/  2   N/A
MILWAUKEE LAKESH 1100   67     280/  8/  9   N/A
S MID LAKE BUOY  1050   46 38  210/  6/  8   N/A     0
KENOSHA   LAKESH 1000   61     190/  4/  5   N/A
$$

TC  - TEMPERATURE IN CELSIUS
VSB - VISIBILITY IN STATUTE MILES
WCI - WIND CHILL INDEX
HX  - HEAT INDEX




USA.gov is the U.S. government's official web portal to all federal, state and local government web resources and services.